Weather reports worldwide

Advertisment
Lecce, Italy (16332): temperature & dewpoint: 15.01.2021 06:00:00 - 21.01.2021 06:00:00 (CET)Lecce, Italy (16332): wind speed: 15.01.2021 06:00:00 - 21.01.2021 06:00:00 (CET)Lecce, Italy (16332): wind direction: 15.01.2021 06:00:00 - 21.01.2021 06:00:00 (CET)Lecce, Italy (16332): reduced air pressure: 15.01.2021 06:00:00 - 21.01.2021 06:00:00 (CET)Lecce, Italy (16332): visibility: 15.01.2021 06:00:00 - 21.01.2021 06:00:00 (CET)
Date & Time tt [°C] td [°C] ff [km/h] ff [kn] dd ppp [hPa] vv [km]
21.01.2021 06:00:00 - - - - - - -
21.01.2021 05:00:00 - - - - - - -
21.01.2021 04:00:00 5,8 5,7 8 4 SE 1023,8 10
21.01.2021 03:00:00 - - - - - - -
21.01.2021 02:00:00 - - - - - - -
21.01.2021 01:00:00 7,0 6,9 8 4 ESE 1024,6 10
21.01.2021 00:00:00 - - - - - - -
20.01.2021 23:00:00 - - - - - - -
20.01.2021 22:00:00 7,2 6,6 9 5 ESE 1025,1 10
20.01.2021 21:00:00 - - - - - - -
20.01.2021 20:00:00 8,0 7,0 9 5 SE - 10
20.01.2021 19:00:00 8,4 6,7 9 5 SE 1025,4 10
20.01.2021 18:00:00 9,0 7,0 9 5 ESE - 10
20.01.2021 17:00:00 11,0 7,0 9 5 SSE - 10
20.01.2021 16:00:00 13,4 7,6 15 8 S 1025,5 10
20.01.2021 15:00:00 14,0 6,0 16 9 S - 10
20.01.2021 14:00:00 14,0 6,0 16 9 SSW - 10
20.01.2021 13:00:00 13,8 7,4 15 8 S 1026,3 10
20.01.2021 12:00:00 13,0 6,0 15 8 S - 10
20.01.2021 11:00:00 14,0 6,0 16 9 SSE - 10
20.01.2021 10:00:00 12,8 7,7 13 7 SSE 1027,6 10
20.01.2021 09:00:00 8,0 7,0 8 4 SE - 10
20.01.2021 08:00:00 4,0 4,0 5 3 SE - 10
20.01.2021 07:00:00 2,4 2,4 8 4 ESE 1026,8 10
20.01.2021 06:00:00 2,0 2,0 5 3 SE - 10
20.01.2021 05:00:00 3,0 3,0 5 3 E - 10
20.01.2021 04:00:00 2,6 2,6 5 3 E 1027,3 10
20.01.2021 03:00:00 3,0 2,0 5 3 ESE - 10
20.01.2021 02:00:00 3,0 2,0 5 3 ESE - 10
20.01.2021 01:00:00 2,2 2,2 8 4 ESE 1027,7 10
20.01.2021 00:00:00 2,0 2,0 8 4 ESE - 10
19.01.2021 23:00:00 2,0 2,0 8 4 ESE - 10
19.01.2021 22:00:00 3,0 3,0 5 3 E 1027,4 10
19.01.2021 21:00:00 3,0 3,0 4 2 E - 10
19.01.2021 20:00:00 4,0 4,0 8 4 ESE - 10
19.01.2021 19:00:00 4,2 3,8 5 3 SE 1027,2 10
19.01.2021 18:00:00 5,0 4,0 5 3 SE - 10
19.01.2021 17:00:00 9,0 6,0 8 4 NNE - 10
19.01.2021 16:00:00 9,8 5,2 9 5 NNE 1026,3 10
19.01.2021 15:00:00 11,0 4,0 16 9 N - 10
19.01.2021 14:00:00 12,0 2,0 15 8 NNW - 10
19.01.2021 13:00:00 11,4 1,9 21 11 NW 1026,5 10
19.01.2021 12:00:00 11,0 3,0 16 9 NW - 10
19.01.2021 11:00:00 10,0 3,0 18 10 NNW - 10
19.01.2021 10:00:00 8,4 3,8 15 8 NW 1026,7 10
19.01.2021 09:00:00 5,0 3,0 11 6 NW - 10
19.01.2021 08:00:00 1,0 1,0 9 5 NW - 10
19.01.2021 07:00:00 1,0 1,0 9 5 NW 1025,7 10
19.01.2021 06:00:00 0,0 0,0 9 5 NW - 10
19.01.2021 05:00:00 1,0 1,0 8 4 NW - 10
19.01.2021 04:00:00 -0,4 -0,4 4 2 WNW 1024,7 10
19.01.2021 03:00:00 0,0 0,0 4 2 WSW - 10
19.01.2021 02:00:00 1,0 0,0 5 3 WNW - 10
19.01.2021 01:00:00 1,4 0,1 8 4 NW 1024,5 10
19.01.2021 00:00:00 2,0 1,0 5 3 WNW - 10
18.01.2021 23:00:00 2,0 0,0 11 6 W - 10
18.01.2021 22:00:00 2,2 0,1 11 6 W 1023,9 10
18.01.2021 21:00:00 2,0 1,0 11 6 W - 10
18.01.2021 20:00:00 2,0 0,0 9 5 W - 10
18.01.2021 19:00:00 2,2 -0,5 11 6 W 1022,6 10
18.01.2021 18:00:00 2,0 -1,0 11 6 WNW - 10
18.01.2021 17:00:00 5,0 -1,0 16 9 NW - 10
18.01.2021 16:00:00 6,2 0,3 21 11 NNW 1021,2 10
18.01.2021 15:00:00 6,0 1,0 21 11 NNW - 10
18.01.2021 14:00:00 5,0 3,0 15 8 NNW - 10
18.01.2021 13:00:00 5,2 2,9 15 8 N 1019,6 10
18.01.2021 12:00:00 5,0 4,0 16 9 NNW - 10
18.01.2021 11:00:00 5,0 5,0 13 7 NW - 10
18.01.2021 10:00:00 5,2 4,5 11 6 NNW 1019,4 10
18.01.2021 09:00:00 5,0 4,0 8 4 NNW - 10
18.01.2021 08:00:00 4,0 4,0 13 7 NW - 10
18.01.2021 07:00:00 2,4 2,4 9 5 NW 1017,6 10
18.01.2021 06:00:00 3,0 3,0 9 5 NNW - 10
18.01.2021 05:00:00 2,0 2,0 8 4 NNW - 10
18.01.2021 04:00:00 2,2 2,2 9 5 NNW 1015,7 10
18.01.2021 03:00:00 3,0 3,0 8 4 NW - 10
18.01.2021 02:00:00 3,0 3,0 5 3 NNW - 10
18.01.2021 01:00:00 3,8 3,8 4 2 N 1015,1 10
18.01.2021 00:00:00 4,0 4,0 5 3 ENE - 10
17.01.2021 23:00:00 4,0 4,0 8 4 E - 10
17.01.2021 22:00:00 4,4 4,2 9 5 E 1015,9 10
17.01.2021 21:00:00 5,0 4,0 11 6 ENE - 10
17.01.2021 20:00:00 5,0 2,0 9 5 E - 10
17.01.2021 19:00:00 5,8 1,5 5 3 ESE 1015,7 10
17.01.2021 18:00:00 6,0 1,0 8 4 ENE - 10
17.01.2021 17:00:00 6,0 0,0 11 6 E - 10
17.01.2021 16:00:00 7,0 -0,2 5 3 E 1015,6 10
17.01.2021 15:00:00 7,0 -1,0 4 2 ENE - 10
17.01.2021 14:00:00 7,0 -2,0 4 2 N - 10
17.01.2021 13:00:00 7,4 -1,5 9 5 NNW 1016,8 10
17.01.2021 12:00:00 7,0 -1,0 9 5 NNW - 10
17.01.2021 11:00:00 7,0 0,0 15 8 WNW - 10
17.01.2021 10:00:00 6,2 0,1 18 10 WNW 1017,9 10
17.01.2021 09:00:00 4,0 1,0 15 8 W - 10
17.01.2021 08:00:00 1,0 1,0 11 6 W - 10
17.01.2021 07:00:00 1,8 0,2 8 4 W 1017,0 10
17.01.2021 06:00:00 3,0 -1,0 15 8 WNW - 10
17.01.2021 05:00:00 3,0 -1,0 11 6 W - 10
17.01.2021 04:00:00 1,6 -1,5 8 4 W 1017,1 10
17.01.2021 03:00:00 - - 13 7 NNW - 10
17.01.2021 02:00:00 4,0 -3,0 16 9 NNW - 10
17.01.2021 01:00:00 3,8 -3,2 21 11 NW 1017,1 10
17.01.2021 00:00:00 4,0 -3,0 22 12 NW - 10
16.01.2021 23:00:00 5,0 -3,0 28 15 NW - 10
16.01.2021 22:00:00 4,4 -3,6 22 12 NW 1016,5 10
16.01.2021 21:00:00 5,0 -3,0 21 11 NW - 10
16.01.2021 20:00:00 5,0 -4,0 24 13 NNW - 10
16.01.2021 19:00:00 5,0 -2,8 29 16 NNW 1015,2 10
16.01.2021 18:00:00 5,0 -3,0 26 14 NNW - 10
16.01.2021 17:00:00 6,0 -2,0 28 15 NNW - 10
16.01.2021 16:00:00 7,0 -2,2 39 21 NNW 1013,9 10
16.01.2021 15:00:00 7,0 -1,0 34 18 NNW - 10
16.01.2021 14:00:00 7,0 0,0 31 17 N - 10
16.01.2021 13:00:00 8,4 -0,1 29 16 N 1012,8 10
16.01.2021 12:00:00 8,0 -1,0 34 18 N - 10
16.01.2021 11:00:00 8,0 0,0 35 19 N - 10
16.01.2021 10:00:00 7,4 0,4 26 14 N 1012,5 10
16.01.2021 09:00:00 7,0 0,0 24 13 N - 10
16.01.2021 08:00:00 7,0 0,0 21 11 N - 10
16.01.2021 07:00:00 6,8 1,1 21 11 N 1011,6 10
16.01.2021 06:00:00 3,0 2,0 9 5 WNW - 10
16.01.2021 05:00:00 3,0 3,0 8 4 NW - 10
16.01.2021 04:00:00 3,6 2,9 8 4 NW 1011,2 10
16.01.2021 03:00:00 4,0 3,0 11 6 NW - 10
16.01.2021 02:00:00 4,0 3,0 11 6 NW - 10
16.01.2021 01:00:00 5,2 2,0 16 9 NW 1012,2 10
16.01.2021 00:00:00 5,0 2,0 16 9 NW - 10
15.01.2021 23:00:00 5,0 2,0 8 4 NNW - 10
15.01.2021 22:00:00 5,4 1,7 11 6 NW 1012,7 10
15.01.2021 21:00:00 7,0 1,0 18 10 N - 10
15.01.2021 20:00:00 8,0 0,0 16 9 NNE - 10
15.01.2021 19:00:00 7,8 1,4 8 4 NNW 1012,3 10
15.01.2021 18:00:00 8,0 1,0 13 7 NNW - 10
15.01.2021 17:00:00 8,0 0,0 11 6 N - 10
15.01.2021 16:00:00 8,6 0,3 13 7 N 1011,9 10
15.01.2021 15:00:00 9,0 0,0 13 7 N - 10
15.01.2021 14:00:00 9,0 0,0 13 7 N - 10
15.01.2021 13:00:00 9,6 1,0 15 8 N 1012,5 10
15.01.2021 12:00:00 9,0 1,0 15 8 N - 10
15.01.2021 11:00:00 9,0 1,0 18 10 N - 10
15.01.2021 10:00:00 9,2 0,6 18 10 N 1013,8 10
15.01.2021 09:00:00 7,0 3,0 11 6 NNW - 10
15.01.2021 08:00:00 5,0 3,0 5 3 W - 10
15.01.2021 07:00:00 4,2 1,2 9 5 NNW 1012,9 10
15.01.2021 06:00:00 6,0 2,0 8 4 WNW - 10

tt = temperature
td = dewpoint
ff = wind speed
dd = wind direction
ppp = reduced air pressure
vv = visibility

Next stations